Location: Anaheim Lake
(33.8649°N, 117.8474°W)
Time: 18:35:15
(UTC+00:00)

Daily predictions for brighter satellites

Satellite Brightness Start Highest point End
(mag) Time Altitude Azimuth Time Altitude Azimuth Time Altitude Azimuth
COSMOS 2428 4.1 12:15:29 22° NNW 12:15:29 22° NNW 12:18:18 10° N
Cosmos 1980 3.6 12:14:18 45° WSW 12:15:51 61° WNW 12:21:28 10° NNE
COSMOS 2441 4.3 12:11:02 10° N 12:15:54 67° WNW 12:18:04 33° SSW
Meteor 1-4 Rocket 3.5 12:13:46 10° S 12:17:10 46° E 12:20:31 10° NNE
H-2A R/B 3.1 12:13:14 10° N 12:16:16 42° NNW 12:16:16 42° NNW
Cosmos 676 Rocket 4.5 12:13:59 10° S 12:19:12 62° ESE 12:24:24 10° NNE
SJ-6F 4.3 12:15:34 10° N 12:19:43 80° WNW 12:21:49 28° SSW
ATLAS 3B R/B 3.8 12:14:59 10° NNW 12:21:20 42° NE 12:27:49 10° ESE
Cosmos 1190 Rocket 4.0 12:25:57 23° SW 12:29:13 59° WNW 12:34:28 10° N
Cosmos 407 Rocket 3.6 12:28:55 33° WSW 12:30:49 48° WNW 12:35:48 10° N
CENTAUR R/B 3.7 12:25:39 10° NNW 12:33:51 63° ENE 12:42:28 10° SE
Cosmos 389 Rocket 2.5 12:37:45 47° WNW 12:37:45 47° WNW 12:40:56 10° N
ATLAS 2AS CENTAUR R/B 3.7 12:34:26 26° W 12:37:42 36° NW 12:44:59 10° NNE
Cosmos 2154 Rocket 3.9 12:31:38 10° S 12:37:49 89° E 12:44:03 10° N
Cosmos 2327 Rocket 4.4 12:32:03 10° SSW 12:38:19 73° W 12:44:30 10° N
CZ-2C R/B 2.5 12:35:01 10° N 12:40:06 56° WNW 12:45:05 10° SSW
Cosmos 2228 3.9 12:37:57 10° N 12:42:07 51° E 12:46:13 10° SSE
BREEZE-M DEB (TANK) 3.6 12:40:55 20° WSW 12:45:55 59° NW 12:49:11 10° NE
Cosmos 1610 Rocket 4.4 12:40:31 10° SSW 12:46:42 70° W 12:53:02 10° N
PSLV R/B 2.4 12:46:35 59° WSW 12:47:00 84° NNW 12:49:38 10° ENE
Cosmos 2184 Rocket 4.2 12:41:44 10° SSW 12:47:34 44° W 12:53:31 10° N
USA 238 DEB 4.1 12:40:46 10° NW 12:47:42 47° WSW 12:54:44 10° S
USA 238 4.1 12:40:53 10° NW 12:47:48 48° WSW 12:54:52 10° S
Cosmos 1437 Rocket 3.7 12:45:01 10° S 12:48:40 49° E 12:52:20 10° NNE
Okean O Rocket 3.4 12:45:04 10° NNE 12:49:04 34° E 12:53:03 10° SSE
Cosmos 292 Rocket 3.9 12:44:51 10° NNW 12:49:30 52° WSW 12:54:10 10° S
Cosmos 44 3.1 12:46:33 10° NNW 12:50:53 76° ENE 12:55:10 10° SSE
SL-16 R/B 2.2 12:45:50 10° SSW 12:51:28 88° ESE 12:57:10 10° NNE
Cosmos 921 Rocket 3.4 12:48:02 12° NW 12:51:35 36° W 12:55:25 10° SSW
CZ-4B R/B 3.1 12:49:30 10° N 12:53:15 41° WNW 12:56:49 10° SW
Cosmos 2058 Rocket 4.3 12:52:37 10° N 12:56:53 45° E 13:01:08 10° SSE
Meteor 1-16 Rocket 4.4 12:52:49 10° N 12:58:07 71° E 13:03:30 10° SSE
PSLV R/B 3.5 12:55:11 10° N 12:58:51 66° WNW 13:02:30 10° SSW
Cosmos 2341 Rocket 4.1 12:55:59 10° S 13:02:13 81° E 13:08:28 10° N
Cosmos 1953 2.4 13:00:03 10° NNW 13:03:57 51° W 13:07:50 10° S
Nadezhda 3 Rocket 4.0 12:57:55 10° N 13:04:17 77° W 13:10:34 10° S
Cosmos 1954 Rocket 4.2 13:02:25 10° SW 13:07:27 47° WNW 13:12:30 10° N
Cosmos 2278 Rocket 2.5 13:02:44 10° NW 13:08:07 45° WSW 13:13:27 10° S
Cosmos 1356 3.6 13:04:44 10° N 13:08:12 75° E 13:11:38 10° SSE
SKYMED 2 3.8 13:04:18 10° SSE 13:08:36 73° ENE 13:12:57 10° N
Meteor PRIRODA 4.3 13:10:37 10° N 13:13:59 33° WNW 13:17:21 10° SW
Cosmos 1140 Rocket 4.4 13:11:43 10° SW 13:16:07 28° WNW 13:20:32 10° N
Cosmos 1892 Rocket 3.8 13:12:58 10° SSW 13:17:13 45° W 13:21:29 10° N
Meteor 2-5 Rocket 3.9 13:12:10 10° S 13:17:54 87° E 13:23:48 10° N
Helios 1A Rocket 2.9 13:13:55 10° N 13:18:05 85° WNW 13:22:13 10° SSW
Cosmos 1908 4.2 13:17:52 10° N 13:21:37 52° E 13:25:19 10° SSE
GP-B 3.3 13:18:52 10° SSW 13:23:09 48° W 13:27:27 10° NNW
Meteor 1-31 Rocket 4.4 13:23:10 10° NNW 13:25:24 15° WNW 13:27:40 10° WSW
RESURS DK-1 3.2 13:22:36 10° SW 13:26:14 29° WNW 13:29:53 10° N
BREEZE-M DEB (TANK) 3.0 13:23:59 10° WSW 13:33:17 58° NW 13:36:08 10° NE
SL-8 Rocket 4.0 13:27:55 10° S 13:34:06 78° W 13:40:18 10° N
Cosmos 1606 Rocket 4.4 13:32:18 10° NNW 13:35:56 27° W 13:39:34 10° SSW
